Location: Ariel
(45.9570°N, 122.5700°W)
Time: 09:15:42
(UTC-07:00)

Tiros 1 - Pass Details

Date: 22 July 2019
Orbit: 631 x 664 km, 48.4° (Epoch: 23 August)

Event Time Altitude Azimuth Distance (km) Brightness Sun altitude
Rises 15:50:49 0° 277° (W) 2,996 11.1 49.3°
Reaches altitude 10° 15:53:11 10° 280° (W) 2,084 10.5 49.0°
Maximum altitude 15:57:58 65° 3° (N) 730 8.0 48.2°
Drops below altitude 10° 16:02:45 10° 86° (E) 2,077 9.5 47.5°
Sets 16:05:07 0° 89° (E) 2,985 10.2 47.1°
